Regional Weather Roundup
Issued by NWS

Home | Current Version | Previous Version | Text Only | Print | Product List | Glossary Off
Versions: 1 2 3 4 5 6 7 8 9 10 11 12 13 14 15 16 17 18 19 20 21 22 23 24 25 26 27 28 29 30 31 32 33 34 35 36 37 38 39 40 41 42 43 44 45 46 47 48 49 50

000
ASUS43 KDTX 110501
RWRMI
MICHIGAN HOURLY REGIONAL WEATHER ROUNDUP
NATIONAL WEATHER SERVICE DETROIT/PONTIAC MI
1200 AM EST MON DEC 11 2017

NOTE: "FAIR" INDICATES FEW OR NO CLOUDS BELOW 12,000 FEET WITH NO
SIGNIFICANT WEATHER AND/OR OBSTRUCTION TO VISIBILITY.

MIZ047>049-052>055-059>063-066>070-074>076-081>083-110600-
SOUTHEAST LOWER MICHIGAN

CITY           SKY/WX    TMP DP  RH WIND       PRES   REMARKS
ADRIAN         CLEAR     25  19  78 NW8       30.01R WCI  16
ALMA           CLOUDY    24  20  85 NW7       30.02R WCI  16
ANN ARBOR      CLOUDY    26  21  81 W10       29.99R WCI  16
BAD AXE        CLOUDY    23  17  76 NW12G17   29.98R WCI  12
CARO           CLOUDY    24  18  75 NW12      29.98R WCI  13
DETROIT CITY   CLOUDY    28  23  81 NW9       29.98R WCI  19
DETROIT        CLOUDY    29  23  78 NW10      29.99R WCI  20
FLINT          CLOUDY    25  21  85 NW9       29.99R WCI  15
GROSSE ILE     CLOUDY    29  24  84 NW10      29.97R WCI  19
HILLSDALE      CLOUDY    27  21  80 NW7       29.98R WCI  19
HOWELL         CLOUDY    25  22  91 NW7       29.99R WCI  17

CITY           SKY/WX    TMP DP  RH WIND       PRES   REMARKS
JACKSON        CLOUDY    27  19  72 NW7       29.99R WCI  19
LAMBERTVILLE   CLOUDY    28  24  83 NW5       30.00R WCI  23
LANSING        CLOUDY    25  21  85 NW9       30.02R WCI  15
LAPEER         CLOUDY    26  22  87 NW9       29.97R WCI  16
MASON          CLOUDY    27  20  74 NW6       30.00R WCI  20
MONROE         CLOUDY    29  23  78 NW9       29.99R WCI  20
MT. CLEMENS    FLURRIES  26  26  99 W6        29.95R WCI  19
PONTIAC        CLOUDY    25  23  92 NW14      29.96R WCI  13
PORT HOPE        N/A     23  13  65 NW20G28   29.97R WCI   8
PORT HURON     LGT SNOW  25  21  86 W5        29.96R WCI  19
TRI CITIES     CLOUDY    22  17  81 NW10      30.01R WCI  11
MIDLAND        CLOUDY    23  17  78 NW5       30.00S WCI  17
TROY           FLURRIES  28  23  81 NW12      29.99R WCI  18
SAGINAW HB     CLOUDY    23  19  86 NW7       30.00R WCI  15
$$
MIZ043>046-050>051-056>058-064>065-071>073-077>080-110600-
SOUTHWEST LOWER MICHIGAN

CITY           SKY/WX    TMP DP  RH WIND       PRES   REMARKS
BATTLE CREEK   CLOUDY    27  21  78 W6        30.02R WCI  20
BENTON HARBOR  CLOUDY    31  19  61 VRB7      30.05R WCI  24
BIG RAPIDS     CLOUDY    22  13  68 N3        30.00S
COLDWATER      CLOUDY    28  22  80 W3        30.01R
FREMONT        CLOUDY    24  19  83 NE5       30.01F WCI  18
HOLLAND        CLOUDY    30  20  66 NW3       30.03S
GRAND RAPIDS   FLURRIES  26  21  81 N9        30.02R WCI  17
IONIA          FLURRIES  26  21  82 NW5       30.00S WCI  20
KALAMAZOO      CLOUDY    28  21  75 W5        30.02R WCI  23
LUDINGTON      CLOUDY    26  16  65 N7        30.01F WCI  18
MARSHALL       CLOUDY    26  20  79 W3        30.00R
MOUNT PLEASANT PTCLDY    22  13  65 NW5       30.00S WCI  16
MUSKEGON       CLOUDY    27  19  72 NE8       30.03S WCI  19
SOUTH HAVEN    CLOUDY    32  20  62 NW9       30.03S WCI  24
$$
MIZ016>042-110600-
NORTHERN LOWER MICHIGAN

CITY           SKY/WX    TMP DP  RH WIND       PRES   REMARKS
ALPENA         CLOUDY    16   8  71 W6        30.00R WCI   7
BEAVER ISLAND  CLOUDY    20   9  64 N7        30.00F WCI  11
BELLAIRE       CLOUDY    19  12  74 NE3       30.02S
CADILLAC       CLOUDY    18  11  73 NW3       29.96S
CHARLEVOIX     CLOUDY    20  10  65 NW6       30.03F WCI  13
FRANKFORT      CLOUDY    24  13  63 NW5       30.01F WCI  18
GAYLORD        CLOUDY    13   7  77 CALM      29.96R
GRAYLING       CLOUDY    17   8  68 NW3       29.98F
HARBOR SPRINGS CLOUDY    18   7  63 CALM      30.00S
HOUGHTON LAKE  CLOUDY    17   8  67 NW8       29.98S WCI   7
MANISTEE       CLOUDY    23  12  62 NW5       30.01F WCI  17
OSCODA         PTCLDY    14   4  64 NW7       30.01R WCI   4
PELLSTON       CLOUDY    17   8  67 NW6       30.00S WCI   9
ROGERS CITY    LGT SNOW  15  11  82 W7        30.00F WCI   6
TRAVERSE CITY  CLOUDY    22  14  71 W7        30.00F WCI  13
$$
MIZ007>008-015-110600-
EASTERN UPPER MICHIGAN

CITY           SKY/WX    TMP DP  RH WIND       PRES   REMARKS
KINROSS        FLURRIES   7   0  73 E3        29.99S
MACKINAC ISLAN CLOUDY    17   6  62 W10       29.99S WCI   5
NEWBERRY       CLOUDY    14  12  92 CALM      29.97F
S. S. MARIE    CLOUDY     8  -1  66 CALM      30.00R
MUNISING         N/A     16  13  88 W6        29.99S WCI   7
$$
MIZ004>006-011>014-085-110600-
CENTRAL UPPER MICHIGAN

CITY           SKY/WX    TMP DP  RH WIND       PRES   REMARKS
MANISTIQUE     CLOUDY    15   7  69 W7        30.00S WCI   5
ESCANABA       CLEAR      7   3  84 W6        30.04S WCI  -3
MENOMINEE      PTCLDY    10   2  69 CALM      30.05S
$$
MIZ001>003-009>011-084-110600-
WESTERN UPPER MICHIGAN

CITY           SKY/WX    TMP DP  RH WIND       PRES   REMARKS
IRON MOUNTAIN  CLOUDY    13   9  84 CALM      29.97F
HOUGHTON       CLOUDY    12   5  73 S3        29.95F
COPPER HARBOR    N/A     15   6  67 CALM      29.99S
IRONWOOD       CLOUDY    13   9  84 S7        29.96F WCI   3
$$

ABBREVIATIONS USED IN REMARKS
   TC - TEMPERATURE IN CELSIUS
  WCI - WIND CHILL INDEX
   HX - HEAT INDEX
  VSB - VISIBILITY





USA.gov is the U.S. government's official web portal to all federal, state and local government web resources and services.